| time (UTC) | temp F | wind direction | speed MPH | gust MPH | rain 1hr in | rain 24hr in | rain mn in | humidity % | barometer mb |
| 20260831203005 | 68 | 199 | 1.0 | 0.0 | 0.00 | 0.00 | 0.01 | 18 | 1018.9 |
| 20260831201557 | 68 | 200 | 0.0 | 0.0 | 0.00 | 0.00 | 0.01 | 17 | 1019.0 |
| 20260831200056 | 68 | 196 | 1.0 | 0.0 | 0.00 | 0.00 | 0.01 | 12 | 1019.1 |
| 20260831194608 | 68 | 196 | 0.0 | 0.0 | 0.00 | 0.00 | 0.01 | 10 | 1019.1 |
| 20260831193051 | 68 | 196 | 0.0 | 0.0 | 0.00 | 0.00 | 0.01 | 9 | 1019.2 |
| 20260831191550 | 69 | 196 | 0.0 | 0.0 | 0.00 | 0.00 | 0.01 | 14 | 1019.4 |
| 20260831190045 | 68 | 196 | 0.0 | 0.0 | 0.00 | 0.00 | 0.01 | 10 | 1019.6 |
| 20260831184538 | 67 | 196 | 0.0 | 0.0 | 0.00 | 0.00 | 0.01 | 100 | 1019.8 |
| 20260831183031 | 67 | 196 | 1.0 | 0.0 | 0.00 | 0.00 | 0.01 | 100 | 1019.8 |
| 20260831181528 | 66 | 196 | 0.0 | 0.0 | 0.00 | 0.00 | 0.01 | 100 | 1019.8 |
| 20260831180025 | 66 | 196 | 1.0 | 0.0 | 0.00 | 0.00 | 0.01 | 100 | 1020.2 |
| 20260831174520 | 66 | 194 | 0.0 | 0.0 | 0.00 | 0.00 | 0.01 | 100 | 1020.1 |
| 20260831173025 | 66 | 194 | 0.0 | 0.0 | 0.00 | 0.00 | 0.01 | 100 | 1020.3 |
| 20260831171514 | 67 | 194 | 0.0 | 0.0 | 0.00 | 0.00 | 0.00 | 5 | 1020.1 |
| 20260831170011 | 67 | 198 | 3.0 | 0.0 | 0.00 | 0.00 | 0.00 | 21 | 1020.5 |
| 20260831164506 | 69 | 205 | 4.0 | 0.0 | 0.00 | 0.00 | 0.00 | 31 | 1020.4 |
| 20260831163005 | 70 | 231 | 2.0 | 0.0 | 0.00 | 0.00 | 0.00 | 46 | 1020.5 |
| 20260831161558 | 71 | 169 | 1.0 | 0.0 | 0.00 | 0.00 | 0.00 | 49 | 1020.4 |
| 20260831160055 | 72 | 143 | 0.0 | 0.0 | 0.00 | 0.00 | 0.00 | 50 | 1020.4 |
| 20260831154550 | 72 | 140 | 0.0 | 0.0 | 0.00 | 0.00 | 0.00 | 50 | 1020.4 |
| 20260831153043 | 72 | 140 | 0.0 | 0.0 | 0.00 | 0.00 | 0.00 | 48 | 1020.5 |
| 20260831151539 | 71 | 138 | 0.0 | 0.0 | 0.00 | 0.00 | 0.00 | 46 | 1020.7 |
| 20260831150034 | 70 | 136 | 1.0 | 0.0 | 0.00 | 0.00 | 0.00 | 40 | 1020.6 |
| 20260831144530 | 68 | 124 | 1.0 | 0.0 | 0.00 | 0.00 | 0.00 | 29 | 1020.5 |
| 20260831143027 | 67 | 74 | 1.0 | 0.0 | 0.00 | 0.00 | 0.00 | 22 | 1020.8 |
| 20260831141523 | 66 | 81 | 0.0 | 0.0 | 0.00 | 0.00 | 0.00 | 10 | 1020.9 |
| 20260831140019 | 66 | 82 | 1.0 | 0.0 | 0.00 | 0.00 | 0.00 | 5 | 1020.9 |
| 20260831134515 | 65 | 106 | 1.0 | 0.0 | 0.00 | 0.00 | 0.00 | 100 | 1020.7 |
| 20260831133020 | 65 | 174 | 1.0 | 0.0 | 0.00 | 0.00 | 0.00 | 100 | 1020.7 |
| 20260831131530 | 64 | 224 | 0.0 | 0.0 | 0.00 | 0.00 | 0.00 | 100 | 1020.5 |
| 20260831130009 | 64 | 229 | 0.0 | 0.0 | 0.00 | 0.00 | 0.00 | 100 | 1020.5 |
| 20260831124505 | 63 | 230 | 0.0 | 0.0 | 0.00 | 0.00 | 0.00 | 100 | 1020.7 |
| 20260831123100 | 63 | 230 | 0.0 | 0.0 | 0.00 | 0.00 | 0.00 | 100 | 1020.8 |
| 20260831121553 | 62 | 230 | 0.0 | 0.0 | 0.00 | 0.00 | 0.00 | 100 | 1020.8 |
| 20260831120049 | 62 | 230 | 0.0 | 0.0 | 0.00 | 0.00 | 0.00 | 100 | 1020.7 |
| 20260831114544 | 61 | 230 | 0.0 | 0.0 | 0.00 | 0.00 | 0.00 | 100 | 1020.7 |
| 20260831113041 | 0 | 0.0 | 0.0 | 0.00 | 0.00 | 0.00 | 1020.4 | ||
| 20260831111536 | 0 | 0.0 | 0.0 | 0.00 | 0.00 | 0.00 | 1020.7 | ||
| 20260831110037 | 0 | 0.0 | 0.0 | 0.00 | 0.00 | 0.00 | 1020.4 | ||
| 20260831104536 | 0 | 0.0 | 0.0 | 0.00 | 0.00 | 0.00 | 1020.6 | ||
| 20260831103029 | 0 | 0.0 | 0.0 | 0.00 | 0.00 | 0.00 | 1020.6 | ||
| 20260831101520 | 61 | 230 | 0.0 | 0.0 | 0.00 | 0.00 | 0.00 | 100 | 1020.3 |
| 20260831100016 | 61 | 230 | 0.0 | 0.0 | 0.00 | 0.00 | 0.00 | 100 | 1020.3 |
| 20260831094512 | 61 | 230 | 0.0 | 0.0 | 0.00 | 0.00 | 0.00 | 100 | 1020.3 |
| 20260831093014 | 61 | 230 | 0.0 | 0.0 | 0.00 | 0.00 | 0.00 | 100 | 1020.3 |
| 20260831091505 | 61 | 230 | 0.0 | 0.0 | 0.00 | 0.00 | 0.00 | 100 | 1020.3 |
| 20260831090001 | 61 | 230 | 0.0 | 0.0 | 0.00 | 0.00 | 0.00 | 100 | 1020.3 |
| 20260831084557 | 61 | 230 | 0.0 | 0.0 | 0.00 | 0.00 | 0.00 | 100 | 1020.3 |
| 20260831083053 | 61 | 230 | 0.0 | 0.0 | 0.00 | 0.00 | 0.00 | 100 | 1020.4 |
| 20260831081549 | 61 | 230 | 0.0 | 0.0 | 0.00 | 0.00 | 0.00 | 100 | 1020.4 |
| 20260831080045 | 61 | 230 | 0.0 | 0.0 | 0.00 | 0.00 | 0.00 | 100 | 1020.3 |
| 20260831074540 | 61 | 230 | 0.0 | 0.0 | 0.00 | 0.00 | 0.00 | 100 | 1020.3 |
| 20260831073038 | 61 | 230 | 0.0 | 0.0 | 0.00 | 0.00 | 0.00 | 100 | 1019.9 |
| 20260831071534 | 62 | 230 | 0.0 | 0.0 | 0.00 | 0.00 | 0.00 | 100 | 1019.9 |
| 20260831070030 | 62 | 230 | 0.0 | 0.0 | 0.00 | 0.00 | 0.00 | 100 | 1020.0 |
| 20260831064527 | 62 | 230 | 0.0 | 0.0 | 0.00 | 0.00 | 0.00 | 100 | 1020.3 |
| 20260831063023 | 62 | 230 | 0.0 | 0.0 | 0.00 | 0.00 | 0.00 | 100 | 1020.4 |
| 20260831061519 | 62 | 230 | 0.0 | 0.0 | 0.00 | 0.00 | 0.00 | 100 | 1020.5 |
| 20260831060014 | 62 | 230 | 1.0 | 0.0 | 0.00 | 0.00 | 0.00 | 100 | 1020.6 |
| 20260831054512 | 62 | 230 | 0.0 | 0.0 | 0.00 | 0.00 | 0.00 | 100 | 1020.7 |
| 20260831053006 | 62 | 230 | 0.0 | 0.0 | 0.00 | 0.00 | 0.00 | 100 | 1020.6 |
| 20260831051502 | 62 | 231 | 0.0 | 0.0 | 0.00 | 0.00 | 0.00 | 100 | 1020.6 |
| 20260831050058 | 62 | 231 | 0.0 | 0.0 | 0.00 | 0.00 | 0.00 | 100 | 1020.7 |
| 20260831044601 | 62 | 231 | 0.0 | 0.0 | 0.00 | 0.00 | 0.00 | 100 | 1020.7 |
| 20260831043050 | 62 | 229 | 0.0 | 0.0 | 0.00 | 0.00 | 0.00 | 100 | 1020.7 |
| 20260831040043 | 62 | 229 | 0.0 | 0.0 | 0.00 | 0.00 | 0.00 | 100 | 1020.9 |
| 20260831034537 | 62 | 229 | 0.0 | 0.0 | 0.00 | 0.00 | 0.01 | 100 | 1020.9 |
| 20260831033036 | 62 | 229 | 0.0 | 0.0 | 0.00 | 0.00 | 0.01 | 100 | 1020.9 |
| 20260831031534 | 62 | 228 | 0.0 | 0.0 | 0.00 | 0.00 | 0.01 | 100 | 1020.9 |
| 20260831030031 | 62 | 228 | 0.0 | 0.0 | 0.00 | 0.00 | 0.01 | 100 | 1020.9 |
| 20260831024528 | 62 | 228 | 1.0 | 0.0 | 0.00 | 0.00 | 0.01 | 100 | 1020.9 |
| 20260831023020 | 62 | 229 | 0.0 | 0.0 | 0.00 | 0.00 | 0.01 | 100 | 1020.9 |
| 20260831021525 | 63 | 229 | 0.0 | 0.0 | 0.00 | 0.00 | 0.01 | 100 | 1020.8 |
| 20260831020013 | 63 | 229 | 0.0 | 0.0 | 0.00 | 0.00 | 0.01 | 100 | 1020.9 |
| 20260831014517 | 63 | 229 | 1.0 | 0.0 | 0.00 | 0.00 | 0.01 | 100 | 1020.9 |
| 20260831013005 | 63 | 225 | 3.0 | 0.0 | 0.00 | 0.00 | 0.01 | 100 | 1020.9 |
| 20260831011600 | 63 | 242 | 1.0 | 0.0 | 0.00 | 0.00 | 0.01 | 100 | 1020.7 |
| 20260831010119 | 62 | 248 | 1.0 | 0.0 | 0.00 | 0.00 | 0.01 | 100 | 1020.5 |
| 20260831004555 | 63 | 257 | 0.0 | 0.0 | 0.00 | 0.00 | 0.01 | 100 | 1020.2 |
| 20260831003048 | 63 | 259 | 0.0 | 0.0 | 0.00 | 0.00 | 0.01 | 100 | 1019.8 |
| 20260831001544 | 63 | 259 | 0.0 | 0.0 | 0.00 | 0.00 | 0.01 | 100 | 1019.6 |
| 20260831000140 | 63 | 259 | 0.0 | 0.0 | 0.00 | 0.00 | 0.01 | 100 | 1019.3 |
| 20260830234538 | 63 | 260 | 0.0 | 0.0 | 0.00 | 0.00 | 0.01 | 100 | 1019.1 |
| 20260830233035 | 63 | 261 | 0.0 | 0.0 | 0.00 | 0.00 | 0.01 | 100 | 1019.2 |
| 20260830231529 | 63 | 262 | 1.0 | 0.0 | 0.00 | 0.00 | 0.01 | 100 | 1019.0 |
| 20260830230026 | 64 | 278 | 0.0 | 0.0 | 0.00 | 0.00 | 0.01 | 100 | 1019.2 |
| 20260830224523 | 64 | 279 | 0.0 | 0.0 | 0.00 | 0.00 | 0.01 | 100 | 1019.2 |
| 20260830223017 | 64 | 284 | 0.0 | 0.0 | 0.00 | 0.00 | 0.01 | 100 | 1019.2 |
| 20260830221512 | 65 | 288 | 0.0 | 0.0 | 0.00 | 0.00 | 0.01 | 100 | 1019.2 |
| 20260830220009 | 65 | 288 | 0.0 | 0.0 | 0.00 | 0.00 | 0.01 | 100 | 1019.1 |
| 20260830214504 | 66 | 288 | 0.0 | 0.0 | 0.00 | 0.00 | 0.00 | 13 | 1019.1 |
| 20260830213005 | 67 | 287 | 2.0 | 0.0 | 0.00 | 0.00 | 0.00 | 33 | 1019.0 |
| 20260830211600 | 69 | 264 | 2.0 | 0.0 | 0.00 | 0.00 | 0.00 | 44 | 1018.7 |
| 20260830210054 | 70 | 257 | 2.0 | 0.0 | 0.00 | 0.00 | 0.00 | 52 | 1018.6 |
| 20260830204549 | 71 | 240 | 1.0 | 0.0 | 0.00 | 0.00 | 0.00 | 51 | 1018.5 |